Flag for Argentina Weather past 2 weeks in Corrientes, Corrientes, Argentina

Now
63 °F

Clear.


Feels Like: 63 °F
Forecast: 59 / 81 °F
Wind: No wind

Location: Resistencia Aero.

Current Time: Apr 1, 2015 at 1:07:36 AM

Latest Report: Apr 1, 2015 at 12:00 AM


Visibility: 10 mi

Pressure: 30.04 "Hg

Humidity: 94%

Dew point: 61 °F

Location of CorrientesLocation

Historic Weather in Corrientes — Graph

°F

Corrientes temperature yesterday

Maximum temperature yesterday: 82 °F (at 4:00 PM)
Minimum temperature yesterday: 61 °F (at 5:00 AM)
Average temperature yesterday: 70 °F

Past Weeks' High & Low Weather Summary

 TemperatureHumidityPressure
High97 °F (Mar 19, 3:00 PM)100% (Mar 21, 4:00 AM)30.12 "Hg (Mar 21, 4:00 AM)
Low55 °F (Mar 22, 5:00 AM)39% (Mar 17, 2:00 PM)29.80 "Hg (Mar 19, 5:00 PM)
Average73 °F78%29.96 "Hg
* Reported Midnight between Mar 16 and Mar 17 — Midnight between Mar 31 and Apr 1, Corrientes, Weather by CustomWeather, © 2015

Note: Actual official high and low records may vary slightly from our data, if they occured in-between our weather recording intervals... More about our weather records

Advertising

Corrientes weather history for previous 24 hours

 ConditionsComfort  
Time TempWeatherWind HumidityBarometerVisibility
12:00 AM
Wed, Apr 1
63 °FClear.No wind94%30.04 "Hg10 mi
11:00 PM
Tue, Mar 31
64 °FClear.1 mph94%30.04 "Hg10 mi
10:00 PM64 °FClear.No wind100%30.04 "Hg10 mi
9:00 PM68 °FClear.2 mph88%30.01 "Hg10 mi
8:00 PM70 °FClear.3 mph83%30.01 "Hg10 mi
7:00 PM73 °FClear.3 mph74%30.01 "Hg10 mi
6:00 PM79 °FPassing clouds.6 mph61%29.98 "HgN/A
5:00 PM82 °FPartly sunny.1 mph55%29.98 "HgN/A
4:00 PM82 °FBroken clouds.1 mph48%29.98 "HgN/A
3:00 PM81 °FSunny.2 mph51%29.98 "Hg10 mi
2:00 PM79 °FSunny.2 mph58%30.01 "Hg10 mi
1:00 PM77 °FSunny.6 mph65%30.04 "Hg10 mi
12:00 PM77 °FSunny.6 mph65%30.04 "Hg10 mi
11:00 AM75 °FSunny.10 mph69%30.07 "Hg10 mi
10:00 AM72 °FSunny.12 mph83%30.07 "Hg10 mi
9:00 AM70 °FClear.5 mph88%30.04 "Hg5 mi
8:00 AM63 °FFog.2 mph100%30.01 "Hg3 mi
7:00 AM61 °FFog.No wind94%29.98 "Hg1 mi
6:00 AM61 °FClear.No wind100%29.98 "Hg3 mi
5:00 AM61 °FClear.No wind100%29.95 "Hg4 mi
4:00 AM63 °FClear.No wind100%29.95 "Hg2 mi
3:00 AM63 °FClear.No wind100%29.95 "Hg4 mi
2:00 AM64 °FClear.No wind94%29.95 "Hg5 mi
1:00 AM64 °FClear.1 mph94%29.95 "Hg10 mi
Weather by CustomWeather, © 2015

See weather overviewHow to use our weather pages